QPF
0.00 0.00 0.00 0.00 0.00 0.00 0.00 0.00 0.00 0.00 0.00 0.00 0.00 0.00 0.00 0.00 0.00 0.00 0.00 0.00 0.00 0.00 0.00 0.00 0.00 0.00 0.00 0.00 0.00 0.00 0.00 0.00 0.00 0.00 0.00 0.00 0.01 0.00 0.00 0.00 0.00 0.00 0.00 0.00
0.00 0.00 0.00 0.00 0.00 0.00 0.00 0.00 0.00 0.00 0.00 0.00 0.00 0.00 0.00 0.00 0.00 0.00 0.00 0.00 0.00 0.00 0.00 0.00 0.00 0.00 0.00 0.00 0.00 0.00 0.00 0.00 0.00 0.00 0.00 0.00 0.00 0.00 0.00 0.00 0.00 0.00 0.00 0.00
0.00 0.00 0.00 0.00 0.00 0.00 0.00 0.00 0.00 0.00 0.00 0.00 0.00 0.00 0.00 0.00 0.00 0.00 0.00 0.00 0.00 0.00 0.00 0.00 0.00 0.00 0.00 0.00 0.00 0.00 0.00 0.00 0.00 0.00 0.00 0.00 0.00 0.00 0.00 0.00 0.00 0.00 0.00 0.00
0.00 0.00 0.00 0.00 0.00 0.00 0.00 0.00 0.00 0.00 0.00 0.00 0.00 0.00 0.00 0.00 0.00 0.00 0.00 0.00 0.00 0.00 0.00 0.00 0.00 0.00 0.00 0.00 0.00 0.00 0.00 0.00 0.00 0.00 0.00 0.00 0.00 0.00 0.00 0.00 0.00 0.00 0.00 0.00
0.00 0.00 0.00 0.00 0.00 0.00 0.00 0.00 0.00 0.00 0.00 0.00 0.00 0.00 0.00 0.00 0.00 0.00 0.00 0.00 0.00 0.00 0.00 0.00 0.00 0.00 0.00 0.00 0.00 0.00 0.00 0.00 0.00 0.00 0.00 0.00 0.02 0.00 0.00 0.00 0.03 0.00 0.00 0.00
0.00 0.00 0.00 0.00 0.00 0.00 0.00 0.00 0.00 0.00 0.00 0.00 0.00 0.00 0.00 0.00 0.00 0.00 0.00 0.00 0.00 0.00 0.00 0.00 0.00 0.00 0.00 0.00 0.00 0.00 0.00 0.00 0.00 0.00 0.00 0.00 0.01 0.00 0.00 0.01 0.03 0.00 0.00 0.00
0.00 0.00 0.00 0.00 0.00 0.00 0.00 0.00 0.00 0.00 0.00 0.00 0.00 0.00 0.00 0.00 0.00 0.00 0.00 0.00 0.00 0.00 0.00 0.00 0.00 0.00 0.00 0.00 0.00 0.00 0.00 0.00 0.00 0.00 0.00 0.00 0.00 0.00 0.00 0.00 0.00 0.00 0.00 0.00
0.00 0.00 0.00 0.00 0.00 0.00 0.00 0.00 0.00 0.00 0.00 0.00 0.00 0.00 0.00 0.00 0.00 0.00 0.00 0.00 0.00 0.00 0.00 0.00 0.00 0.00 0.00 0.00 0.00 0.00 0.00 0.00 0.00 0.00 0.00 0.00 0.00 0.02 0.00 0.00 0.01 0.02 0.00 0.00
0.00 0.00 0.00 0.00 0.00 0.00 0.00 0.00 0.00 0.00 0.00 0.00 0.00 0.00 0.00 0.00 0.00 0.00 0.00 0.00 0.00 0.00 0.00 0.00 0.00 0.00 0.00 0.00 0.00 0.00 0.00 0.00 0.00 0.00 0.00 0.00 0.00 0.00 0.00 0.00 0.03 0.01 0.01 0.00
0.00 0.00 0.00 0.00 0.00 0.00 0.00 0.00 0.00 0.00 0.00 0.00 0.00 0.00 0.00 0.00 0.00 0.00 0.00 0.00 0.00 0.00 0.00 0.00 0.00 0.00 0.00 0.00 0.00 0.00 0.00 0.00 0.00 0.00 0.00 0.00 0.00 0.00 0.00 0.00 0.00 0.00 0.00 0.00
0.00 0.00 0.00 0.00 0.00 0.00 0.00 0.00 0.00 0.00 0.00 0.00 0.00 0.00 0.00 0.00 0.00 0.00 0.00 0.00 0.00 0.00 0.00 0.00 0.00 0.00 0.00 0.00 0.00 0.00 0.00 0.00 0.00 0.00 0.00 0.00 0.00 0.00 0.00 0.00 0.00 0.00 0.04 0.06
0.00 0.00 0.00 0.00 0.00 0.00 0.00 0.00 0.00 0.00 0.00 0.00 0.00 0.00 0.00 0.00 0.00 0.00 0.00 0.00 0.00 0.00 0.00 0.00 0.00 0.00 0.00 0.00 0.00 0.00 0.00 0.00 0.00 0.00 0.00 0.00 0.00 0.00 0.00 0.00 0.00 0.00 0.03 0.05
0.00 0.00 0.00 0.00 0.00 0.00 0.00 0.00 0.00 0.00 0.00 0.00 0.00 0.00 0.00 0.00 0.00 0.00 0.00 0.00 0.00 0.00 0.00 0.00 0.00 0.00 0.00 0.00 0.00 0.00 0.00 0.00 0.00 0.00 0.00 0.00 0.00 0.00 0.00 0.00 0.00 0.00 0.01 0.02
0.00 0.00 0.00 0.00 0.00 0.00 0.00 0.00 0.00 0.00 0.00 0.00 0.00 0.00 0.00 0.00 0.00 0.00 0.00 0.00 0.00 0.00 0.00 0.00 0.00 0.00 0.00 0.00 0.00 0.00 0.00 0.00 0.00 0.00 0.00 0.00 0.00 0.00 0.00 0.00 0.00 0.01 0.08 0.14
0.00 0.00 0.00 0.00 0.00 0.00 0.00 0.00 0.00 0.00 0.00 0.00 0.00 0.00 0.00 0.00 0.00 0.00 0.00 0.00 0.00 0.00 0.00 0.00 0.00 0.00 0.00 0.00 0.00 0.00 0.00 0.00 0.00 0.00 0.00 0.00 0.00 0.00 0.00 0.01 0.03 0.07 0.13 0.14
0.00 0.00 0.00 0.00 0.00 0.00 0.00 0.00 0.00 0.00 0.00 0.00 0.00 0.00 0.00 0.00 0.00 0.00 0.00 0.00 0.00 0.00 0.00 0.00 0.00 0.00 0.00 0.00 0.00 0.00 0.00 0.00 0.00 0.00 0.00 0.00 0.06 0.08 0.15 0.20 0.14 0.22 0.26 0.11
0.00 0.00 0.00 0.00 0.00 0.00 0.00 0.00 0.00 0.00 0.00 0.00 0.00 0.00 0.00 0.00 0.00 0.00 0.00 0.00 0.00 0.00 0.00 0.00 0.00 0.00 0.00 0.00 0.00 0.00 0.00 0.00 0.00 0.01 0.01 0.02 0.10 0.10 0.27 0.34 0.33 0.14 0.06 0.02
0.00 0.00 0.00 0.00 0.00 0.00 0.00 0.00 0.00 0.00 0.00 0.00 0.00 0.00 0.00 0.00 0.00 0.00 0.00 0.00 0.00 0.00 0.00 0.00 0.00 0.00 0.00 0.00 0.00 0.00 0.00 0.00 0.00 0.00 0.01 0.01 0.00 0.03 0.20 0.18 0.06 0.07 0.08 0.05
0.00 0.00 0.00 0.00 0.00 0.00 0.00 0.00 0.00 0.00 0.00 0.00 0.00 0.00 0.00 0.00 0.00 0.00 0.00 0.00 0.00 0.00 0.00 0.00 0.00 0.00 0.00 0.00 0.00 0.00 0.00 0.00 0.00 0.00 0.00 0.00 0.00 0.01 0.01 0.03 0.01 0.01 0.01 0.00
0.00 0.00 0.00 0.00 0.00 0.00 0.00 0.00 0.00 0.00 0.00 0.00 0.00 0.00 0.00 0.00 0.00 0.00 0.00 0.00 0.00 0.00 0.00 0.00 0.00 0.00 0.00 0.00 0.00 0.00 0.00 0.00 0.00 0.00 0.00 0.00 0.00 0.00 0.00 0.00 0.00 0.00 0.00 0.01
0.00 0.00 0.00 0.00 0.00 0.00 0.00 0.00 0.00 0.00 0.00 0.00 0.00 0.00 0.00 0.00 0.00 0.00 0.00 0.00 0.00 0.00 0.00 0.00 0.00 0.00 0.00 0.00 0.00 0.00 0.00 0.00 0.00 0.00 0.00 0.00 0.00 0.00 0.00 0.00 0.00 0.00 0.01 0.02
0.00 0.00 0.00 0.00 0.00 0.00 0.00 0.00 0.00 0.00 0.00 0.00 0.00 0.00 0.00 0.00 0.00 0.00 0.00 0.00 0.00 0.00 0.00 0.00 0.00 0.00 0.00 0.00 0.00 0.00 0.00 0.00 0.00 0.00 0.00 0.00 0.00 0.00 0.00 0.00 0.00 0.01 0.02 0.03
0.00 0.00 0.00 0.00 0.00 0.00 0.00 0.00 0.00 0.00 0.00 0.00 0.00 0.00 0.00 0.00 0.00 0.00 0.00 0.00 0.00 0.00 0.00 0.00 0.00 0.00 0.00 0.00 0.00 0.00 0.00 0.00 0.00 0.01 0.02 0.02 0.00 0.00 0.00 0.00 0.00 0.00 0.00 0.00
0.00 0.00 0.00 0.00 0.00 0.00 0.00 0.00 0.00 0.00 0.00 0.00 0.00 0.00 0.00 0.00 0.00 0.00 0.00 0.00 0.00 0.00 0.00 0.00 0.00 0.00 0.00 0.00 0.00 0.00 0.00 0.00 0.01 0.01 0.03 0.01 0.00 0.00 0.00 0.00 0.00 0.00 0.00 0.00
0.00 0.00 0.00 0.00 0.00 0.00 0.00 0.00 0.00 0.00 0.00 0.00 0.00 0.00 0.00 0.00 0.00 0.00 0.00 0.00 0.00 0.00 0.00 0.00 0.00 0.00 0.00 0.00 0.00 0.00 0.00 0.00 0.00 0.01 0.00 0.00 0.00 0.00 0.00 0.00 0.00 0.00 0.00 0.00
0.00 0.00 0.00 0.00 0.00 0.00 0.00 0.00 0.00 0.00 0.00 0.00 0.00 0.00 0.00 0.00 0.00 0.00 0.00 0.00 0.00 0.00 0.00 0.00 0.00 0.00 0.00 0.00 0.00 0.00 0.00 0.00 0.00 0.00 0.00 0.00 0.00 0.00 0.00 0.00 0.00 0.00 0.00 0.00
MSLP
998.63 997.90 999.47 997.88 998.48 998.66 998.39 999.02 998.67 999.89 1000.85 1000.89 1001.06 1001.49 1002.92 1003.61 1004.02 1004.52 1004.94 1005.51 1006.05 1006.16 1007.10 1007.57 1008.15 1008.59 1009.28 1009.85 1010.51 1011.30 1011.83 1012.53 1012.92 1013.01 1012.74 1013.45 1013.57 1013.51 1013.41 1013.42 1013.71 1014.10 1014.32 1014.09
997.88 997.73 998.05 998.51 998.66 998.21 997.90 998.18 998.44 999.54 1000.10 1000.30 1000.86 1000.90 1001.94 1002.98 1003.34 1003.73 1004.34 1004.79 1005.41 1005.84 1005.96 1006.83 1007.33 1007.85 1008.56 1009.42 1010.12 1010.94 1011.51 1012.28 1012.82 1012.64 1012.66 1012.38 1012.76 1013.03 1012.81 1013.15 1013.69 1014.06 1013.99 1014.17
997.28 997.72 998.10 998.42 998.07 998.14 997.71 997.68 998.41 998.83 999.43 999.70 999.77 1000.88 1001.53 1002.55 1003.03 1003.26 1003.67 1003.98 1004.46 1004.87 1005.46 1005.84 1006.60 1007.06 1007.83 1008.65 1009.71 1010.61 1011.48 1011.98 1012.47 1012.47 1012.83 1013.27 1013.23 1013.14 1013.10 1013.08 1013.51 1013.70 1013.97 1013.95
997.59 997.57 998.13 998.19 997.65 997.91 998.71 998.17 998.33 997.95 997.27 997.86 998.87 999.68 1001.26 1002.04 1002.47 1002.84 1002.95 1003.16 1003.35 1003.78 1004.54 1005.11 1005.48 1006.38 1006.88 1007.77 1008.98 1009.91 1011.13 1011.89 1012.19 1012.47 1012.38 1012.64 1012.53 1012.50 1012.59 1012.74 1012.69 1013.10 1013.57 1013.66
997.29 997.54 998.09 997.96 997.46 998.03 997.91 997.88 997.63 997.36 996.69 996.99 997.39 998.22 1000.47 1001.32 1001.47 1001.80 1002.20 1002.12 1002.44 1002.57 1003.01 1003.72 1004.55 1005.06 1005.99 1006.89 1008.01 1009.30 1010.67 1011.30 1011.71 1012.13 1012.23 1012.54 1012.68 1012.32 1012.34 1012.69 1012.92 1013.45 1013.40 1013.66
997.10 997.61 997.80 997.45 997.85 998.04 997.72 997.57 997.10 996.48 997.31 996.40 997.01 997.24 998.88 999.42 1000.04 1000.57 1001.02 1001.57 1001.62 1001.56 1001.99 1002.72 1003.49 1004.63 1005.46 1006.46 1007.57 1008.69 1010.06 1010.93 1011.77 1011.94 1012.43 1012.42 1012.56 1012.73 1012.41 1012.70 1012.94 1012.78 1012.62 1012.97
997.47 997.32 997.74 997.92 997.33 997.30 997.15 997.14 997.64 998.17 995.70 996.37 996.88 997.81 998.11 999.27 999.41 999.78 1000.17 1000.71 1001.00 1001.19 1001.54 1002.17 1003.06 1004.03 1005.22 1006.30 1007.36 1008.27 1009.57 1010.56 1011.35 1011.64 1011.94 1012.27 1012.53 1012.77 1012.80 1013.02 1012.69 1012.67 1011.97 1012.33
996.85 996.74 996.98 997.43 997.06 996.30 995.98 996.00 995.88 996.53 996.20 996.29 996.85 997.32 998.13 998.89 999.52 999.89 999.93 1000.18 1000.54 1000.55 1000.63 1001.68 1002.76 1003.75 1005.08 1006.09 1007.09 1007.89 1008.89 1009.98 1010.60 1011.17 1011.44 1011.88 1012.31 1012.35 1012.37 1012.47 1012.57 1012.59 1012.35 1012.12
995.59 995.73 996.35 996.52 996.75 996.91 995.90 995.84 995.41 996.19 995.84 995.95 996.83 997.84 998.44 998.91 999.24 999.44 999.59 999.93 1000.21 1000.63 1001.15 1001.84 1002.68 1003.70 1004.78 1005.76 1006.70 1007.52 1008.42 1009.45 1009.99 1010.31 1010.89 1011.35 1011.82 1012.05 1011.77 1012.04 1012.24 1012.51 1012.59 1012.62
994.81 995.05 995.42 996.19 996.96 996.90 996.80 997.65 997.34 997.96 996.03 995.79 997.07 997.34 997.82 998.37 998.74 999.09 999.40 999.55 1000.06 1000.52 1001.23 1001.90 1002.60 1003.50 1004.41 1005.29 1006.21 1007.09 1007.87 1008.62 1009.10 1009.38 1009.98 1010.49 1010.80 1011.23 1011.43 1011.50 1011.73 1011.97 1012.15 1012.66
994.93 994.62 995.64 996.25 996.46 995.68 996.45 996.49 997.36 995.92 995.50 995.59 995.91 997.42 998.38 998.81 998.58 998.61 999.00 999.38 999.77 1000.57 1001.18 1001.84 1002.42 1003.19 1004.10 1004.97 1005.67 1006.68 1007.37 1007.97 1008.37 1008.58 1008.73 1009.41 1009.80 1010.21 1010.91 1010.98 1011.23 1011.59 1011.96 1012.58
995.51 994.47 994.86 995.79 995.83 996.06 995.14 995.21 995.70 997.04 998.17 996.24 995.88 997.69 998.34 998.58 998.95 999.19 999.32 999.76 1000.31 1000.70 1001.39 1001.94 1002.48 1003.11 1003.81 1004.58 1005.05 1006.04 1006.70 1007.07 1007.57 1007.75 1008.40 1008.68 1009.21 1009.45 1009.57 1010.32 1010.61 1011.02 1011.53 1012.16
995.70 994.65 994.36 994.92 995.64 996.05 995.79 995.36 994.89 994.83 995.91 996.42 995.88 997.37 998.11 998.88 999.62 999.98 999.94 1000.55 1001.19 1001.36 1001.86 1002.26 1002.87 1003.66 1004.06 1004.62 1005.03 1005.33 1006.21 1006.57 1006.76 1007.43 1007.87 1008.42 1008.62 1009.05 1009.24 1009.28 1009.95 1010.30 1010.86 1011.62
995.97 994.39 993.51 993.93 994.57 995.00 995.55 995.33 995.43 994.95 995.14 995.87 996.01 997.37 998.09 998.97 999.53 1000.15 1000.64 1001.16 1001.54 1002.00 1002.53 1002.65 1003.17 1003.92 1004.89 1005.37 1005.72 1006.01 1006.01 1006.29 1006.97 1007.00 1007.61 1008.05 1008.46 1008.44 1008.72 1009.05 1009.48 1010.06 1010.66 1011.56
996.18 994.67 993.92 995.36 994.46 994.45 995.05 995.50 995.75 995.52 995.76 995.29 995.79 996.62 997.81 999.24 999.93 1000.68 1001.18 1001.81 1002.30 1002.80 1003.09 1003.92 1004.17 1004.98 1005.66 1006.13 1006.59 1006.86 1007.04 1007.06 1007.09 1007.31 1007.77 1007.93 1008.24 1008.44 1008.62 1008.85 1009.35 1009.83 1010.31 1010.82
996.04 995.13 994.68 994.63 995.32 995.46 995.31 995.34 995.83 996.02 996.01 996.12 996.40 996.93 998.45 1000.06 1000.74 1001.21 1001.94 1002.77 1003.55 1004.34 1005.04 1005.69 1006.10 1006.33 1006.69 1006.80 1007.03 1007.27 1007.44 1007.66 1007.89 1008.14 1008.31 1008.41 1008.67 1009.07 1009.09 1009.40 1009.50 1009.83 1010.27 1010.11
995.50 995.22 995.21 995.18 995.52 996.01 995.88 995.36 995.71 995.98 996.51 996.52 996.74 997.33 999.15 1000.19 1001.16 1001.93 1002.90 1003.89 1004.81 1005.62 1006.27 1006.73 1007.14 1007.52 1007.71 1007.59 1007.73 1007.70 1008.11 1008.41 1008.74 1009.44 1009.78 1009.85 1010.05 1010.56 1010.82 1010.88 1010.87 1010.91 1011.07 1011.72
995.04 995.26 995.36 995.34 995.79 995.73 995.45 995.26 995.82 995.98 996.57 997.06 997.40 998.71 999.67 1000.88 1002.05 1002.86 1003.73 1004.80 1005.74 1006.49 1007.11 1007.53 1007.90 1008.45 1008.73 1008.99 1009.33 1009.49 1009.85 1009.97 1010.20 1010.73 1011.17 1011.29 1011.50 1011.72 1011.95 1011.87 1011.80 1011.82 1011.92 1011.74
994.68 995.05 995.51 995.60 995.39 995.55 995.70 995.95 996.13 996.47 996.91 997.50 997.74 999.21 1000.53 1001.56 1002.81 1003.97 1004.94 1005.67 1006.51 1007.20 1007.71 1008.12 1008.54 1009.12 1009.72 1010.14 1010.50 1010.59 1010.82 1011.17 1011.36 1011.67 1012.04 1012.22 1012.24 1012.25 1012.33 1012.17 1011.87 1011.33 1011.03 1010.74
994.58 994.96 995.30 995.66 994.97 994.72 995.19 995.82 996.28 996.37 996.47 997.60 998.28 999.59 1000.52 1001.33 1001.52 1003.92 1005.28 1006.13 1007.07 1008.04 1008.49 1008.83 1009.22 1009.84 1010.52 1010.96 1011.11 1011.36 1011.48 1011.60 1011.88 1012.19 1012.27 1012.34 1012.26 1012.07 1011.90 1012.03 1011.80 1011.42 1010.93 1010.22
994.80 994.76 994.94 995.11 995.42 994.71 994.08 995.06 996.38 996.63 996.70 997.24 998.34 999.54 1000.41 1001.40 1002.61 1004.60 1005.85 1006.78 1007.77 1008.45 1009.04 1009.76 1010.27 1010.81 1011.42 1011.56 1011.58 1011.71 1011.80 1012.05 1012.18 1012.36 1012.31 1012.29 1012.37 1012.03 1012.20 1012.27 1011.81 1011.22 1010.45 1009.80
994.78 995.12 994.75 994.94 994.73 994.56 994.77 996.13 996.45 996.54 996.93 997.49 998.43 999.66 1000.62 1002.49 1003.72 1005.08 1006.21 1007.11 1007.91 1008.61 1009.25 1009.92 1010.87 1011.70 1011.86 1011.84 1011.89 1012.02 1012.35 1012.52 1012.30 1012.42 1012.48 1012.52 1012.56 1012.47 1012.63 1012.53 1012.50 1012.09 1010.96 1010.49
994.53 994.42 994.34 994.48 994.24 994.53 995.26 995.52 996.32 996.30 997.36 998.21 998.98 1000.01 1001.21 1002.67 1004.20 1005.60 1006.74 1007.72 1008.54 1009.21 1009.74 1010.25 1010.95 1011.64 1012.10 1012.31 1012.28 1012.34 1012.67 1012.48 1012.64 1012.60 1012.73 1012.83 1013.01 1012.91 1012.61 1012.61 1012.75 1012.88 1012.76 1012.54
994.19 994.22 993.66 993.96 994.71 994.72 995.18 995.45 996.26 996.69 997.58 998.52 999.45 1000.49 1001.71 1003.00 1004.65 1006.02 1007.23 1008.17 1008.96 1009.67 1010.24 1010.82 1011.35 1011.95 1012.63 1012.51 1012.54 1012.62 1012.68 1012.53 1012.51 1012.66 1012.81 1012.92 1013.27 1013.66 1013.87 1013.26 1012.60 1012.99 1013.22 1013.42
993.28 994.37 994.09 994.64 994.83 995.12 995.31 995.91 996.50 997.00 997.92 998.91 999.97 1001.13 1002.09 1003.57 1005.17 1006.52 1007.73 1008.69 1009.55 1010.25 1010.79 1011.27 1012.16 1012.85 1013.26 1013.30 1013.15 1012.74 1012.65 1012.65 1012.81 1012.76 1013.05 1012.97 1013.43 1013.93 1014.26 1014.58 1014.77 1014.07 1014.91 1014.90
993.99 993.91 994.00 994.11 995.49 995.29 995.57 996.31 996.80 997.44 998.51 999.54 1000.75 1001.70 1002.89 1004.34 1006.04 1007.32 1008.39 1009.38 1010.10 1010.83 1011.79 1012.26 1012.80 1013.37 1013.30 1013.21 1013.26 1013.22 1012.99 1012.70 1012.94 1012.83 1013.17 1013.49 1013.41 1013.52 1013.50 1014.11 1015.00 1015.93 1015.80 1015.46
Thickness
5879 5865 5826 5874 5875 5872 5871 5854 5857 5852 5853 5844 5842 5840 5834 5839 5838 5832 5831 5829 5826 5828 5829 5830 5827 5827 5822 5819 5813 5807 5803 5800 5799 5798 5799 5792 5793 5796 5799 5799 5797 5794 5792 5794
5876 5854 5878 5882 5877 5876 5876 5857 5859 5859 5860 5851 5844 5842 5847 5843 5841 5842 5836 5834 5832 5832 5836 5832 5832 5831 5827 5820 5816 5810 5805 5801 5798 5802 5803 5806 5802 5799 5803 5800 5796 5793 5794 5793
5867 5873 5885 5874 5874 5865 5877 5866 5856 5851 5861 5866 5857 5834 5839 5844 5847 5849 5849 5849 5845 5840 5836 5839 5836 5836 5834 5826 5819 5813 5806 5803 5801 5803 5802 5798 5799 5799 5797 5799 5797 5796 5793 5794
5872 5891 5873 5868 5871 5876 5831 5879 5869 5867 5871 5845 5868 5815 5831 5838 5838 5843 5848 5851 5852 5852 5850 5847 5846 5841 5841 5836 5830 5821 5811 5805 5802 5802 5802 5798 5798 5796 5801 5802 5805 5801 5797 5797
5867 5870 5863 5859 5873 5878 5861 5886 5878 5876 5877 5873 5869 5849 5836 5847 5835 5843 5851 5858 5861 5865 5864 5858 5855 5855 5851 5847 5838 5828 5815 5810 5808 5804 5803 5798 5794 5800 5804 5803 5801 5797 5799 5796
5881 5895 5882 5882 5882 5880 5889 5878 5882 5889 5859 5851 5868 5861 5840 5851 5853 5858 5865 5864 5869 5874 5874 5872 5871 5864 5857 5853 5844 5835 5821 5813 5806 5804 5799 5798 5795 5794 5797 5797 5794 5799 5803 5801
5858 5867 5881 5884 5870 5885 5883 5862 5814 5805 5854 5842 5882 5845 5856 5869 5877 5874 5870 5871 5876 5880 5879 5875 5868 5863 5856 5849 5843 5838 5826 5815 5810 5806 5803 5800 5797 5795 5794 5793 5796 5796 5804 5802
5834 5832 5870 5883 5875 5877 5885 5871 5851 5813 5828 5850 5880 5841 5856 5883 5885 5885 5886 5884 5884 5886 5891 5881 5874 5868 5858 5852 5845 5840 5832 5821 5817 5811 5808 5805 5800 5799 5799 5799 5798 5797 5800 5803
5853 5851 5890 5893 5894 5886 5880 5871 5908 5874 5887 5861 5864 5865 5877 5883 5879 5883 5884 5884 5881 5884 5884 5880 5877 5871 5863 5856 5849 5844 5836 5827 5823 5820 5815 5810 5806 5804 5804 5803 5802 5798 5798 5797
5887 5854 5890 5889 5891 5891 5880 5873 5860 5846 5840 5835 5850 5853 5849 5868 5872 5881 5881 5885 5885 5887 5883 5881 5879 5875 5870 5864 5858 5851 5844 5834 5830 5829 5824 5819 5816 5812 5810 5809 5804 5803 5800 5795
5890 5885 5866 5879 5865 5874 5874 5872 5867 5892 5890 5853 5843 5842 5878 5870 5884 5887 5890 5894 5894 5887 5886 5884 5882 5881 5875 5870 5864 5855 5848 5841 5837 5835 5835 5828 5824 5821 5814 5811 5809 5805 5800 5793
5880 5888 5857 5859 5893 5898 5904 5893 5893 5847 5809 5872 5872 5845 5891 5889 5887 5889 5890 5891 5892 5892 5889 5887 5884 5881 5876 5870 5867 5858 5853 5848 5844 5842 5835 5831 5827 5824 5822 5814 5812 5808 5800 5795
5878 5871 5852 5859 5875 5886 5874 5891 5907 5906 5881 5861 5857 5846 5896 5888 5880 5882 5883 5883 5882 5885 5884 5883 5880 5873 5871 5868 5866 5864 5857 5852 5851 5844 5837 5830 5827 5822 5819 5819 5813 5810 5802 5794
5880 5883 5884 5858 5866 5884 5864 5882 5891 5899 5876 5867 5872 5859 5874 5876 5874 5877 5879 5880 5880 5878 5877 5879 5875 5869 5863 5860 5857 5855 5855 5854 5846 5845 5836 5829 5824 5822 5819 5815 5810 5803 5798 5787
5868 5859 5889 5869 5892 5895 5883 5877 5880 5877 5884 5878 5880 5877 5879 5875 5875 5874 5878 5876 5872 5870 5870 5865 5865 5858 5853 5849 5846 5844 5843 5843 5842 5836 5828 5825 5821 5820 5815 5810 5804 5798 5791 5785
5870 5853 5877 5870 5878 5879 5872 5885 5881 5880 5883 5883 5884 5876 5888 5881 5879 5873 5870 5866 5859 5855 5852 5849 5847 5846 5842 5842 5839 5837 5835 5833 5831 5824 5819 5819 5813 5809 5804 5799 5793 5787 5776 5763
5857 5859 5856 5842 5871 5862 5844 5874 5877 5880 5883 5884 5865 5882 5881 5870 5866 5864 5860 5856 5848 5845 5842 5839 5837 5835 5834 5835 5834 5830 5826 5824 5816 5805 5800 5798 5793 5784 5779 5777 5772 5768 5760 5752
5856 5856 5860 5845 5855 5811 5869 5902 5892 5882 5882 5886 5883 5875 5873 5866 5864 5864 5862 5849 5842 5839 5835 5833 5831 5827 5825 5823 5817 5813 5807 5803 5796 5788 5781 5776 5769 5764 5760 5756 5752 5750 5748 5745
5878 5863 5841 5831 5837 5855 5861 5873 5870 5862 5859 5880 5877 5870 5865 5863 5856 5844 5850 5847 5839 5836 5833 5830 5827 5820 5812 5806 5801 5798 5792 5786 5781 5774 5766 5761 5756 5751 5747 5744 5744 5746 5745 5745
5873 5873 5852 5839 5830 5819 5861 5880 5893 5889 5845 5880 5876 5864 5859 5861 5841 5831 5843 5841 5833 5828 5825 5820 5816 5810 5801 5795 5792 5785 5780 5775 5768 5763 5759 5754 5751 5747 5744 5739 5737 5737 5737 5739
5833 5842 5832 5838 5826 5855 5896 5892 5887 5827 5845 5881 5878 5868 5862 5847 5849 5843 5839 5830 5827 5821 5816 5810 5803 5794 5787 5785 5782 5775 5771 5763 5761 5755 5751 5747 5742 5740 5733 5729 5729 5728 5731 5733
5822 5817 5828 5839 5829 5825 5889 5871 5847 5869 5882 5882 5877 5869 5859 5850 5846 5838 5831 5823 5818 5813 5808 5802 5789 5779 5778 5777 5772 5765 5757 5755 5753 5748 5742 5737 5732 5729 5723 5719 5714 5711 5718 5719
5818 5841 5840 5851 5852 5885 5886 5881 5886 5892 5876 5873 5870 5868 5860 5848 5837 5829 5820 5814 5808 5802 5797 5793 5783 5774 5770 5767 5763 5755 5750 5749 5742 5738 5732 5727 5721 5718 5716 5709 5703 5696 5694 5693
5848 5864 5858 5863 5866 5873 5879 5889 5887 5887 5878 5876 5873 5865 5856 5842 5833 5822 5814 5806 5799 5794 5788 5782 5775 5766 5755 5758 5754 5749 5744 5742 5736 5729 5723 5718 5710 5701 5695 5697 5699 5693 5689 5684
5855 5850 5850 5843 5858 5870 5874 5878 5880 5881 5879 5873 5868 5859 5850 5838 5825 5816 5805 5797 5791 5784 5779 5773 5761 5751 5744 5743 5741 5741 5738 5733 5724 5720 5714 5710 5702 5692 5686 5680 5676 5680 5668 5666
5849 5842 5838 5836 5854 5861 5865 5875 5879 5871 5864 5863 5854 5847 5842 5830 5814 5805 5795 5789 5783 5774 5763 5756 5749 5741 5739 5738 5733 5730 5728 5724 5716 5712 5705 5698 5695 5690 5688 5680 5667 5654 5653 5652